Rijeka, Croatia

5:12 AM CEST on October 19, 2018 (GMT +0200)
Rijeka

Weather History for LDRI - April, 2018

Change the Weather History Date:

Monday, April 16, 2018

  Actual Average Record
Temperature  
Mean Temperature 66 °F -  
Max Temperature 73 °F - - ()
Min Temperature 59 °F - - ()
Cooling Degree Days 1    
Growing Degree Days 16 (Base 50)    
Moisture  
Dew Point 56 °F    
Average Humidity 75    
Maximum Humidity 94    
Minimum Humidity 53    
Precipitation  
Precipitation 0.00 in - - ()
Sea Level Pressure  
Sea Level Pressure 29.84 in    
Wind  
Wind Speed 5 mph ()    
Max Wind Speed 8 mph    
Max Gust Speed -    
Visibility 6.0 miles    
Events Rain    
T = Trace of Precipitation, MM = Missing Value Source: Averaged Metar Reports

Daily Weather History Graph

Daily Weather History Graph

Search for Another Location

Airport or City:

Astronomy

Apr. 16, 2018 Rise Set
Actual Time 6:15 AM CEST 7:48 PM CEST
Civil Twilight 5:44 AM CEST 8:19 PM CEST
Nautical Twilight 5:07 AM CEST 8:57 PM CEST
Astronomical Twilight 4:27 AM CEST 9:37 PM CEST
Moon 6:50 AM CEST (4/16) 8:16 PM CEST (4/16)
Length of Visible Light 14h 34m
Length of Day
13h 33m
New Moon, 0% of the Moon is Illuminated
Apr 16
New Moon
Apr 22
First Quarter
Apr 30
Full
May 8
Last Quarter
May 15
New

Hourly Weather History & Observations

Time (CEST) Temp. Dew Point Humidity Pressure Visibility Wind Dir Wind Speed Gust Speed Precip Events Conditions
12:00 AM 60.8 °F 55.4 °F 82% 29.83 in 6.2 mi East 4.6 mph - N/A Rain Rain
12:30 AM 60.8 °F 55.4 °F 82% 29.83 in 6.2 mi NE 8.1 mph - N/A Rain Light Rain
1:00 AM 60.8 °F 55.4 °F 82% 29.80 in 6.2 mi North 4.6 mph - N/A   Mostly Cloudy
1:30 AM 60.8 °F 57.2 °F 88% 29.80 in 6.2 mi NW 4.6 mph - N/A   Mostly Cloudy
2:00 AM 59.0 °F 55.4 °F 88% 29.80 in 6.2 mi SW 6.9 mph - N/A   Mostly Cloudy
2:30 AM 59.0 °F 57.2 °F 94% 29.80 in 6.2 mi NNE 3.5 mph - N/A Rain Light Rain
3:00 AM 59.0 °F 57.2 °F 94% 29.80 in 6.2 mi NW 5.8 mph - N/A Rain Light Rain
3:30 AM 60.8 °F 55.4 °F 82% 29.77 in 6.2 mi North 8.1 mph - N/A   Mostly Cloudy
4:00 AM 60.8 °F 55.4 °F 82% 29.77 in 6.2 mi NW 5.8 mph - N/A   Mostly Cloudy
4:30 AM 62.6 °F 55.4 °F 77% 29.77 in 6.2 mi NNW 5.8 mph - N/A   Mostly Cloudy
5:00 AM 60.8 °F 55.4 °F 82% 29.77 in 6.2 mi Variable 2.3 mph - N/A   Scattered Clouds
5:30 AM 60.8 °F 55.4 °F 82% 29.77 in 6.2 mi South 3.5 mph - N/A   Scattered Clouds
6:00 AM 59.0 °F 55.4 °F 88% 29.80 in 6.2 mi South 4.6 mph - N/A   Mostly Cloudy
6:30 AM 59.0 °F 55.4 °F 88% 29.77 in 6.2 mi ESE 4.6 mph - N/A Rain Light Rain
7:00 AM 60.8 °F 55.4 °F 82% 29.77 in 6.2 mi ESE 3.5 mph - N/A   Mostly Cloudy
7:30 AM 60.8 °F 55.4 °F 82% 29.77 in 5.0 mi West 4.6 mph - N/A   Mostly Cloudy
8:00 AM 62.6 °F 55.4 °F 77% 29.80 in 5.0 mi West 3.5 mph - N/A   Mostly Cloudy
8:30 AM 60.8 °F 57.2 °F 88% 29.80 in 5.0 mi WNW 3.5 mph - N/A   Mostly Cloudy
9:30 AM 66.2 °F 55.4 °F 68% 29.80 in 5.0 mi Calm Calm - N/A   Mostly Cloudy
10:00 AM 66.2 °F 57.2 °F 73% 29.80 in 5.0 mi SE 3.5 mph - N/A   Mostly Cloudy
11:00 AM 69.8 °F 53.6 °F 56% 29.83 in 5.0 mi ESE 4.6 mph - N/A   Scattered Clouds
11:30 AM 69.8 °F 53.6 °F 56% 29.83 in 6.2 mi Variable 5.8 mph - N/A   Scattered Clouds
12:30 PM 71.6 °F 55.4 °F 57% 29.83 in 6.2 mi SW 6.9 mph - N/A   Scattered Clouds
1:00 PM 71.6 °F 53.6 °F 53% 29.83 in 6.2 mi SW 8.1 mph - N/A   Scattered Clouds
1:30 PM 71.6 °F 55.4 °F 57% 29.83 in 6.2 mi SW 6.9 mph - N/A   Partly Cloudy
2:00 PM 73.4 °F 55.4 °F 53% 29.83 in 6.2 mi WSW 8.1 mph - N/A   Partly Cloudy
2:30 PM 71.6 °F 55.4 °F 57% 29.83 in 6.2 mi SW 6.9 mph - N/A   Mostly Cloudy
3:00 PM 69.8 °F 55.4 °F 60% 29.83 in 6.2 mi WSW 8.1 mph - N/A   Mostly Cloudy
3:30 PM 68.0 °F 55.4 °F 64% 29.83 in 6.2 mi West 5.8 mph - N/A   Mostly Cloudy
4:00 PM 68.0 °F 55.4 °F 64% 29.86 in 6.2 mi NW 6.9 mph - N/A   Mostly Cloudy
5:00 PM 68.0 °F 55.4 °F 64% 29.86 in 6.2 mi WSW 3.5 mph - N/A   Mostly Cloudy
5:30 PM 68.0 °F 55.4 °F 64% 29.86 in 6.2 mi Variable 3.5 mph - N/A   Mostly Cloudy
6:00 PM 68.0 °F 55.4 °F 64% 29.86 in 6.2 mi Variable 2.3 mph - N/A   Mostly Cloudy
6:30 PM 69.8 °F 55.4 °F 60% 29.86 in 6.2 mi Variable 2.3 mph - N/A   Scattered Clouds
7:00 PM 68.0 °F 55.4 °F 64% 29.86 in 6.2 mi ESE 4.6 mph - N/A   Scattered Clouds
7:30 PM 64.4 °F 57.2 °F 77% 29.89 in 6.2 mi ESE 5.8 mph - N/A   Scattered Clouds
8:00 PM 62.6 °F 57.2 °F 82% 29.89 in 6.2 mi SE 4.6 mph - N/A   Scattered Clouds
8:30 PM 62.6 °F 57.2 °F 82% 29.89 in 6.2 mi ESE 4.6 mph - N/A   Scattered Clouds
9:00 PM 60.8 °F 57.2 °F 88% 29.92 in 6.2 mi WNW 4.6 mph - N/A   Scattered Clouds
9:30 PM 60.8 °F 55.4 °F 82% 29.95 in 6.2 mi North 3.5 mph - N/A   Scattered Clouds
10:00 PM 60.8 °F 55.4 °F 82% 29.95 in 6.2 mi Variable 2.3 mph - N/A   Scattered Clouds
10:30 PM 62.6 °F 55.4 °F 77% 29.95 in 6.2 mi Variable 2.3 mph - N/A   Scattered Clouds
11:00 PM 62.6 °F 55.4 °F 77% 29.95 in 6.2 mi Variable 2.3 mph - N/A   Scattered Clouds
11:30 PM 60.8 °F 55.4 °F 82% 29.95 in 6.2 mi ESE 3.5 mph - N/A   Scattered Clouds